Regional Weather Roundup
Issued by NWS

Home | Current Version | Previous Version | Graphics & Text | Print | Product List | Glossary Off
Versions: 1 2 3 4 5 6 7 8 9 10 11 12 13 14 15 16 17 18 19 20 21 22 23 24 25 26 27 28 29 30 31 32 33 34 35 36 37 38 39 40 41 42 43 44 45 46 47 48 49 50

000
ASUS43 KMKX 191900
RWRWI

WISCONSIN REGIONAL WEATHER ROUNDUP
NATIONAL WEATHER SERVICE MILWAUKEE/SULLIVAN WI
200 PM CDT SAT APR 19 2014

NOTE: "FAIR" INDICATES FEW OR NO CLOUDS BELOW 12,000 FEET WITH NO
SIGNIFICANT WEATHER AND/OR OBSTRUCTIONS TO VISIBILITY.

WIZ001-002-006>008-014>016-023>028-192000-
NORTHWEST WISCONSIN

CITY           SKY/WX    TMP DP  RH WIND       PRES   REMARKS
SUPERIOR ARPT  DRIZZLE   33  32  96 NE8       30.07S WCI  26
ASHLAND        CLOUDY    50  29  44 S10       30.05F
HAYWARD        CLOUDY    50  29  44 S12G22    30.05F
SIREN          CLOUDY    49  30  48 S10G16    30.03R
RICE LAKE      CLOUDY    57  32  38 SE18G30   30.08F
LADYSMITH      SUNNY     55  33  44 S15G23    30.15F
EAU CLAIRE     NOT AVBL
MENOMONIE      PTCLDY    62  32  32 SE16G28   30.10F
NEW RICHMOND   CLOUDY    58  36  43 S16G25    30.04F
OSCEOLA        CLOUDY    56  37  49 S16G24    30.06F
$$

WIZ003>005-009-010-017-018-192000-
NORTH CENTRAL WISCONSIN

CITY           SKY/WX    TMP DP  RH WIND       PRES   REMARKS
WOODRUFF       CLOUDY    52  27  38 S15G25    30.16F
RHINELANDER    PTSUNNY   47  25  42 S18G28    30.19F
EAGLE RIVER    PTSUNNY   48  20  32 S15G26    30.18F
LAND O LAKES   PTSUNNY   50  21  31 S17G23    30.18F
PHILLIPS       CLOUDY    50  31  47 SE15G23   30.14F
TOMAHAWK       PTSUNNY   49  28  43 SE7G20    30.19F
MEDFORD        MOSUNNY   51  33  50 SE13G21   30.19F
MERRILL        MOSUNNY   53  28  38 CALM      30.21F
$$

WIZ029-030-035-036-043>047-192000-
CENTRAL WISCONSIN

CITY           SKY/WX    TMP DP  RH WIND       PRES   REMARKS
WAUSAU         SUNNY     55  29  36 S16       30.20F
MOSINEE        NOT AVBL
MARSHFIELD     MOSUNNY   58  34  40 S20G25    30.18F
STEVENS POINT  MOSUNNY   53  29  39 SE14G21   30.23F
WAUPACA        MOSUNNY   55  30  38 SE15      30.27F
WAUTOMA        NOT AVBL
WISC RAPIDS    MOSUNNY   60  30  32 SE15G23   30.21F
CAMP DOUGLAS   NOT AVBL
$$

WIZ011>013-019>022-031-037>040-048>050-192000-
NORTHEAST WISCONSIN

CITY           SKY/WX    TMP DP  RH WIND       PRES   REMARKS
ANTIGO         MOSUNNY   48  31  52 SE17      30.24F
STURGEON BAY   MOSUNNY   46  28  49 S14G20    30.35F
GREEN BAY      MOSUNNY   51  33  50 SE12      30.31F
MANITOWOC      NOT AVBL
APPLETON       NOT AVBL
CLINTONVILLE   MOSUNNY   50  28  43 S13       30.29F
OSHKOSH        MOSUNNY   55  33  43 SE13      30.28F
$$

WIZ032>034-041-042-053>061-192000-
SOUTHWEST WISCONSIN

CITY           SKY/WX    TMP DP  RH WIND       PRES   REMARKS
LA CROSSE      SUNNY     64  34  32 S18       30.15F
SPARTA         SUNNY     64  31  29 S10G22    30.18F
VIROQUA        FAIR      61  34  36 S20G26    30.18F
BOSCOBEL       MOSUNNY   67  32  27 S10G22    30.20F
PRAIRIE DU CHI MOSUNNY   65  32  29 SE9G17    30.19F
PLATTEVILLE    FAIR      64  34  33 SE15G22   30.24F
$$

WIZ056-057-062-063-064-067-068-192000-
SOUTH CENTRAL WISCONSIN

CITY           SKY/WX    TMP DP  RH WIND       PRES   REMARKS
BARABOO/DELLS  SUNNY     59  32  36 SE14      30.24F
LONE ROCK      NOT AVBL
WATERTOWN      MOSUNNY   58  35  42 SE13      30.29F
MADISON        MOSUNNY   61  35  37 S18       30.27F
MIDDLETON      FAIR      61  32  33 SE14G21   30.26F
MONROE         MOSUNNY   63  33  32 S16G22    30.26F
JANESVILLE     SUNNY     64  30  27 SE15      30.27F
$$

WIZ051-052-058>065-066-070>072-192000-
SOUTHEAST WISCONSIN

CITY           SKY/WX    TMP DP  RH WIND       PRES   REMARKS
MILWAUKEE      PTSUNNY   47  34  60 SE13      30.34F
WAUKESHA       PTSUNNY   54  34  47 SE9       30.33F
MILWAUKEE/TIMM SUNNY     48  34  57 SE7       30.35F
RACINE         PTSUNNY   47  34  60 SE9       30.36F
BURLINGTON     PTSUNNY   55  34  46 SW8G17    30.31F
KENOSHA        PTSUNNY   50  37  61 SE9       30.33F
FOND DU LAC    MOSUNNY   55  35  47 S20       30.29F
SHEBOYGAN      MOSUNNY   47  34  60 S16       30.34F
WEST BEND      MOSUNNY   46  32  57 SE7       30.33F
JUNEAU         SUNNY     55  29  37 SE16G22   30.30F
$$

LSZ147-162-192000-
LAKE SUPERIOR

STATION/POSITION TIME  TEMP    WIND        PRES    WAVE
                       AIR SEA DIR/SP/G            HT/PER
                 (UTC) (F)     (DEG/KT/KT) (MB)    (FT/S)
DEVILS ISLAND    1800   34      70/ 13/ 15 1019.7F
PORT WING        1800   34      40/ 13/ 16 1018.3F
SAXON HARBOR     1840          180/  8/ 15 1016.9F
$$

LMZ867-665-643>646-192000-
LAKE MICHIGAN

STATION/POSITION TIME  TEMP    WIND        PRES    WAVE
                       AIR SEA DIR/SP/G            HT/PER
                 (UTC) (F)     (DEG/KT/KT) (MB)    (FT/S)
NORTHPORT PIER   1800   35      80/  6/  8 1029.1F
SISTER BAY       1823   52     130/ 10/ 13   N/A
KEWAUNEE LAKESHO 1800   35     170/  9/ 10 1028.8F
SHEBOYGAN LAKESH 1800   37     170/ 12/ 14 1028.8F
PORT WASHINGTON  1840   41     190/  6/  7 1028.4F
MILWAUKEE LAKESH 1800   37     140/  6/  7   N/A
KENOSHA   LAKESH 1800   42     130/  4/  5   N/A
$$

TC  - TEMPERATURE IN CELSIUS
VSB - VISIBILITY IN STATUTE MILES
WCI - WIND CHILL INDEX
HX  - HEAT INDEX




USA.gov is the U.S. government's official web portal to all federal, state and local government web resources and services.